Location: Morisset
(33.1080°S, 151.4871°E)
Time: 07:53:47
(UTC+00:00)

Cosmos 2263 Rocket - Pass Details

Date: 29 October 2020
Orbit: 822 x 850 km, 71.0° (Epoch: 27 November)

Event Time Altitude Azimuth Distance (km) Brightness Sun altitude
Exits shadow 12:28:04 21° 176° (S) 1,834 4.4 -40.3°
Drops below altitude 10° 12:29:52 10° 169° (S) 2,468 5.1 -40.5°
Sets 12:32:23 0° 164° (SSE) 3,404 5.9 -40.7°
